• In Belarus
  • List of Countries
  • For 7 days
  • Water Temperature
  • Satellite Maps
  • Weather Map
  • Weather Widgets
  • user-avatar
    Login

    Hourly Weather Stavropol'

    Today, 18 December, Monday

    Time Temperature Precipitation Wind Pressure Humidity
    00:00 +2°C° 0 mm 5 mps 728 mmHg 87%
    01:00 +2°C° 0 mm 5 mps 728 mmHg 87%
    02:00 +2°C° 0 mm 5 mps 728 mmHg 87%
    03:00 +3°C° 0 mm 4 mps 727 mmHg 88%
    04:00 +3°C° 0 mm 4 mps 727 mmHg 87%
    05:00 +2°C° 0 mm 5 mps 727 mmHg 87%
    06:00 +2°C° 0 mm 5 mps 727 mmHg 87%
    07:00 +2°C° 0 mm 5 mps 727 mmHg 86%
    08:00 +2°C° 0 mm 5 mps 727 mmHg 85%
    09:00 +3°C° 0 mm 5 mps 727 mmHg 84%
    10:00 +5°C° 0 mm 5 mps 727 mmHg 82%
    11:00 +5°C° 0 mm 4 mps 727 mmHg 80%
    12:00 +6°C° 0 mm 4 mps 727 mmHg 77%
    13:00 +6°C° 0 mm 4 mps 727 mmHg 76%
    14:00 +7°C° 0 mm 4 mps 727 mmHg 75%
    15:00 +6°C° 0 mm 4 mps 727 mmHg 75%
    16:00 +7°C° 0 mm 3 mps 728 mmHg 78%
    17:00 +6°C° 0 mm 2 mps 728 mmHg 82%
    18:00 +5°C° 0 mm 2 mps 728 mmHg 85%
    19:00 +5°C° 0 mm 2 mps 728 mmHg 87%
    20:00 +5°C° 0 mm 2 mps 728 mmHg 88%
    21:00 +5°C° 0 mm 2 mps 728 mmHg 89%
    22:00 +5°C° 0 mm 2 mps 728 mmHg 90%
    23:00 +4°C° 0 mm 2 mps 728 mmHg 90%

    Tomorrow, 19 December, Tuesday

    Time Temperature Precipitation Wind Pressure Humidity
    00:00 +4°C° 0 mm 2 mps 728 mmHg 91%
    01:00 +4°C° 0 mm 2 mps 727 mmHg 92%
    02:00 +4°C° 0 mm 2 mps 727 mmHg 93%
    03:00 +3°C° 0 mm 3 mps 727 mmHg 93%
    04:00 +3°C° 0 mm 3 mps 727 mmHg 93%
    05:00 +3°C° 0 mm 3 mps 727 mmHg 93%
    06:00 +3°C° 0 mm 3 mps 727 mmHg 93%
    07:00 +4°C° 0.4 mm 2 mps 727 mmHg 93%
    08:00 +4°C° 0.4 mm 2 mps 727 mmHg 93%
    09:00 +5°C° 0.4 mm 1 mps 728 mmHg 93%
    10:00 +5°C° 0.7 mm 2 mps 728 mmHg 92%
    11:00 +5°C° 0.7 mm 2 mps 728 mmHg 91%
    12:00 +5°C° 0.7 mm 2 mps 729 mmHg 90%
    13:00 +6°C° 0.2 mm 2 mps 729 mmHg 89%
    14:00 +6°C° 0.2 mm 2 mps 730 mmHg 89%
    15:00 +6°C° 0.2 mm 2 mps 730 mmHg 88%
    16:00 +6°C° 0 mm 2 mps 730 mmHg 90%
    17:00 +7°C° 0 mm 1 mps 731 mmHg 91%
    18:00 +6°C° 0 mm 1 mps 731 mmHg 93%
    19:00 +6°C° 0 mm 1 mps 731 mmHg 93%
    20:00 +6°C° 0 mm 1 mps 731 mmHg 93%
    21:00 +5°C° 0 mm 1 mps 731 mmHg 93%
    22:00 +5°C° 0 mm 1 mps 732 mmHg 93%
    23:00 +5°C° 0 mm 1 mps 732 mmHg 93%

    Day after tomorrow, 20 December, Wednesday

    Time Temperature Precipitation Wind Pressure Humidity
    00:00 +5°C° 0 mm 1 mps 732 mmHg 92%
    01:00 +5°C° 0 mm 1 mps 732 mmHg 92%
    02:00 +5°C° 0 mm 1 mps 732 mmHg 92%
    03:00 +5°C° 0 mm 1 mps 732 mmHg 92%
    04:00 +5°C° 0 mm 1 mps 732 mmHg 92%
    05:00 +4°C° 0 mm 2 mps 732 mmHg 92%
    06:00 +4°C° 0 mm 2 mps 732 mmHg 92%
    07:00 +4°C° 0 mm 2 mps 732 mmHg 92%
    08:00 +3°C° 0 mm 3 mps 732 mmHg 92%
    09:00 +3°C° 0 mm 3 mps 733 mmHg 92%
    10:00 +4°C° 0.3 mm 3 mps 732 mmHg 90%
    11:00 +4°C° 0.3 mm 3 mps 732 mmHg 88%
    12:00 +5°C° 0.3 mm 3 mps 732 mmHg 87%
    13:00 +5°C° 0.1 mm 3 mps 732 mmHg 85%
    14:00 +5°C° 0.1 mm 3 mps 732 mmHg 84%
    15:00 +5°C° 0.1 mm 3 mps 732 mmHg 82%
    16:00 +5°C° 0.1 mm 3 mps 733 mmHg 85%
    17:00 +6°C° 0.1 mm 2 mps 733 mmHg 87%
    18:00 +5°C° 0.1 mm 2 mps 733 mmHg 90%
    19:00 +5°C° 0.6 mm 2 mps 733 mmHg 91%
    20:00 +5°C° 0.6 mm 2 mps 733 mmHg 92%
    21:00 +5°C° 0.6 mm 2 mps 733 mmHg 94%
    22:00 +5°C° 0.5 mm 2 mps 734 mmHg 94%
    23:00 +5°C° 0.5 mm 2 mps 734 mmHg 94%

    21 December, Thursday

    Time Temperature Precipitation Wind Pressure Humidity
    00:00 +5°C° 0.5 mm 2 mps 734 mmHg 95%
    01:00 +5°C° 0.4 mm 2 mps 734 mmHg 95%
    02:00 +4°C° 0.4 mm 3 mps 735 mmHg 94%
    03:00 +4°C° 0.4 mm 3 mps 735 mmHg 94%
    04:00 +3°C° 0.2 mm 3 mps 736 mmHg 94%
    05:00 +3°C° 0.2 mm 3 mps 736 mmHg 93%
    06:00 +3°C° 0.2 mm 3 mps 736 mmHg 92%
    07:00 +3°C° 0.1 mm 3 mps 736 mmHg 91%
    08:00 +3°C° 0.1 mm 3 mps 737 mmHg 90%
    09:00 +4°C° 0.1 mm 2 mps 737 mmHg 89%
    10:00 +4°C° 0 mm 2 mps 737 mmHg 86%
    11:00 +4°C° 0 mm 2 mps 737 mmHg 83%
    12:00 +4°C° 0 mm 2 mps 737 mmHg 79%
    13:00 +4°C° 0 mm 2 mps 736 mmHg 78%
    14:00 +6°C° 0 mm 1 mps 736 mmHg 76%
    15:00 +6°C° 0 mm 1 mps 736 mmHg 74%
    16:00 +5°C° 0 mm 1 mps 736 mmHg 76%
    17:00 +5°C° 0 mm 1 mps 736 mmHg 79%
    18:00 +5°C° 0 mm 1 mps 735 mmHg 81%
    19:00 +5°C° 0.1 mm 1 mps 735 mmHg 82%
    20:00 +4°C° 0.1 mm 1 mps 735 mmHg 84%
    21:00 +3°C° 0.1 mm 2 mps 735 mmHg 85%
    22:00 +3°C° 0.3 mm 2 mps 734 mmHg 86%
    23:00 +3°C° 0.3 mm 2 mps 734 mmHg 87%

    22 December, Friday

    Time Temperature Precipitation Wind Pressure Humidity
    00:00 +3°C° 0.3 mm 2 mps 733 mmHg 88%
    01:00 +3°C° 0 mm 2 mps 733 mmHg 89%
    02:00 +3°C° 0 mm 2 mps 732 mmHg 90%
    03:00 +3°C° 0 mm 2 mps 731 mmHg 91%
    04:00 +3°C° 0.1 mm 2 mps 731 mmHg 91%
    05:00 +2°C° 0.1 mm 3 mps 730 mmHg 91%
    06:00 +2°C° 0.1 mm 3 mps 730 mmHg 91%
    07:00 +2°C° 0.7 mm 3 mps 729 mmHg 92%
    08:00 +3°C° 0.7 mm 2 mps 729 mmHg 92%
    09:00 +3°C° 0.7 mm 2 mps 728 mmHg 92%
    10:00 +3°C° 1.3 mm 2 mps 728 mmHg 93%
    11:00 +3°C° 1.3 mm 2 mps 728 mmHg 93%
    12:00 +4°C° 1.3 mm 1 mps 727 mmHg 93%
    13:00 +3°C° 0.9 mm 2 mps 727 mmHg 93%
    14:00 +2°C° 0.9 mm 3 mps 727 mmHg 93%
    15:00 +2°C° 0.9 mm 3 mps 727 mmHg 93%
    16:00 +1°C° 0.3 mm 3 mps 728 mmHg 93%
    17:00 +1°C° 0.3 mm 3 mps 728 mmHg 93%
    18:00 +1°C° 0.3 mm 3 mps 729 mmHg 92%
    19:00 +1°C° 0.1 mm 3 mps 729 mmHg 92%
    20:00 +1°C° 0.1 mm 3 mps 729 mmHg 92%
    21:00 0°C° 0.1 mm 3 mps 729 mmHg 92%
    22:00 +1°C° 0 mm 2 mps 729 mmHg 91%
    23:00 +1°C° 0 mm 2 mps 729 mmHg 91%

    23 December, Saturday

    Time Temperature Precipitation Wind Pressure Humidity
    00:00 +1°C° 0 mm 2 mps 729 mmHg 91%
    01:00 +1°C° 0 mm 1 mps 729 mmHg 91%
    02:00 +1°C° 0 mm 1 mps 729 mmHg 91%
    03:00 +1°C° 0 mm 1 mps 729 mmHg 92%
    04:00 0°C° 0 mm 0 mps 729 mmHg 92%
    05:00 0°C° 0 mm 0 mps 729 mmHg 92%
    06:00 -1°C° 0 mm 0 mps 728 mmHg 92%
    07:00 +1°C° 0 mm 1 mps 728 mmHg 91%
    08:00 -1°C° 0 mm 2 mps 728 mmHg 90%
    09:00 -1°C° 0 mm 2 mps 728 mmHg 89%
    10:00 0°C° 0 mm 3 mps 727 mmHg 86%
    11:00 +1°C° 0 mm 3 mps 726 mmHg 82%
    12:00 +1°C° 0 mm 4 mps 726 mmHg 78%
    13:00 +1°C° 0 mm 4 mps 725 mmHg 77%
    14:00 +1°C° 0 mm 5 mps 724 mmHg 77%
    15:00 +1°C° 0 mm 5 mps 723 mmHg 77%
    16:00 +1°C° 0.1 mm 6 mps 723 mmHg 78%
    17:00 -1°C° 0.1 mm 6 mps 722 mmHg 78%
    18:00 -1°C° 0.1 mm 6 mps 722 mmHg 79%
    19:00 -1°C° 0.1 mm 7 mps 721 mmHg 80%
    20:00 -1°C° 0.1 mm 7 mps 720 mmHg 81%
    21:00 -2°C° 0.1 mm 8 mps 719 mmHg 82%
    22:00 -2°C° 0.3 mm 8 mps 718 mmHg 83%
    23:00 -2°C° 0.3 mm 8 mps 718 mmHg 84%
    Show more